{"data":{"norad_id":57747,"epoch":"2026-09-19T22:44:13.040160Z","epoch_age_seconds":179025,"freshness":"STALE","line1":"1 57747U 23131R   26262.94737315  .00000668  00000+0  33788-4 0  9999","line2":"2 57747  43.0022 155.5611 0001044 269.4154  90.6578 15.27579781169628","mean_motion":15.27579781,"eccentricity":0.0001044,"inclination_deg":43.0022,"raan_deg":155.5611,"arg_perigee_deg":269.4154,"mean_anomaly_deg":90.6578,"bstar":3.3788e-5,"rev_number":16962,"period_min":94.266762228113,"perigee_km":482.33344390763,"apogee_km":483.7660597014,"semimajor_km":6861.1867518045,"source":"CELESTRAK","updated_at":"2026-09-21T09:00:33.681596Z"}}